Other Public Products
Issued by NWS Charleston, SC

Home | Current Version | Previous Version | Text Only | Print | Product List | Glossary On
Versions: 1 2 3 4 5 6 7 8 9 10 11 12 13 14 15 16 17 18 19 20 21 22 23 24 25 26 27 28 29 30 31 32 33 34 35 36 37 38 39 40 41 42 43 44 45 46 47 48 49 50
944
FPUS82 KCHS 060227
OPUCHS

TEST...KCHS/KSAV Gateway Observations...TEST
National Weather Service Charleston SC
900 PM EST MON DEC 05 2016

NOTE: "fair" indicates few or no clouds below 12,000 feet with no
significant weather and/or obstructions to visibility.

SCZ050-WAZ558-NCZ071-TXZ119-213-PAZ071-DCZ001-FLZ074-172-MI076-
NYZ176-178-MAZ016-IL014-TNZ027-NJZ106-GAZ044-MD014-060300-
...Gateway Observations for Charleston International...

CITY           SKY/WX    TMP DP  RH WIND       PRES   REMARKS
Chas Airport   LGT RAIN  57  54  89 NE9       29.98F FOG
Seattle        CLOUDY    37  36  96 S5        30.01R WCI  33
Charlotte      LGT RAIN  52  47  83 SE8       30.04R
Dallas DFW     CLOUDY    51  47  86 SW5       29.72R
Dallas Love    CLOUDY    51  48  89 SW5       29.74R
Philladelphia  CLOUDY    43  32  65 NW8       30.11R
Wash National  CLOUDY    48  35  60 N10       30.11R
Baltimore      CLOUDY    45  32  60 N3        30.10R
Miami          PTCLDY    77  72  84 SE7       29.97R
Detroit        PTCLDY    31  28  89 S5        30.07F WCI  26
Newark         MOCLDY    43  34  70 W5        30.09R
Laguardia      PTCLDY    47  32  56 NW9       30.08R
J F K          MOCLDY    46  30  53 NW12      30.09R
Boston Logan   CLEAR     39  33  79 W10       29.97R WCI  32
Ft. Lauderdale CLOUDY    79  73  82 S10       29.95F
Chicago O`Hare CLOUDY    32  29  88 SE9       29.97F FOG     WCI  24
Chicago Midway CLOUDY    33  28  81 SE8       29.98F WCI  26
Houston Bush   DRIZZLE   52  50  93 W3        29.77S FOG
Houston Hobby  CLOUDY    53  51  93 W9        29.77S
Nashville      DRIZZLE   47  44  90 NE5       29.82F
Atlanta        LGT RAIN  52  52 100 E17       29.88F VSB 1/2

$$

GAZ044-118-TXZ119-213-NCZ071-DCZ001-MDZ014-506-PAZ021-071-NJZ106-
NYZ176-178-MAZ106-OHZ011-021-055-MIZ076-KYZ091-ILZ014-INZ047-
MNZ060-060300-
...Gateway Observations for Savannah International...

CITY           SKY/WX    TMP DP  RH WIND       PRES   REMARKS
Savannah Arpt  RAIN      59  57  93 NE7       29.95S
Atlanta        LGT RAIN  52  52 100 E17       29.88F VSB 1/2
Charlotte      LGT RAIN  52  47  83 SE8       30.04R
Dallas DFW     CLOUDY    51  47  86 SW5       29.72R
Houston Bush   DRIZZLE   52  50  93 W3        29.77S FOG
Wash National  CLOUDY    48  35  60 N10       30.11R
Wash Dulles    CLOUDY    43  31  62 NE6       30.10R
Baltimore      CLOUDY    45  32  60 N3        30.10R
Philadelphia   CLOUDY    43  32  65 NW8       30.11R
Newark         MOCLDY    43  34  70 W5        30.09R
Laguardia      PTCLDY    47  32  56 NW9       30.08R
J F K          MOCLDY    46  30  53 NW12      30.09R
Boston         CLEAR     39  33  79 W10       29.97R WCI  32
Pittsburg      CLOUDY    36  29  75 NE3       30.08S
Akron          CLEAR     34  27  75 SE6       30.07F WCI  29
Cleveland      CLOUDY    33  27  78 SE5       30.11S WCI  29
Cincinnati     MOCLDY    39  33  79 E13       29.95F WCI  31
Columbus       CLOUDY    32  29  90 NE6       30.03F WCI  26
Detroit        PTCLDY    31  28  89 S5        30.07F WCI  26
Chicago O`Hare CLOUDY    32  29  88 SE9       29.97F FOG     WCI  24
Minneapolis    CLOUDY    38  31  76 S15G28    29.65F WCI  29
Indianapolis   MOCLDY    37  32  82 E9        29.94F WCI  30

$$




USA.gov is the U.S. government's official web portal to all federal, state and local government web resources and services.